| time (UTC) | temp F | wind direction | speed MPH | gust MPH | rain 1hr in | rain 24hr in | rain mn in | humidity % | barometer mb |
| 20260906124332 | 92 | 311 | 5.0 | 12.0 | 0.00 | 0.00 | 0.00 | 52 | 1015.0 |
| 20260906123332 | 92 | 306 | 4.0 | 12.0 | 0.00 | 0.00 | 0.00 | 52 | 1014.9 |
| 20260906121333 | 92 | 261 | 5.0 | 12.0 | 0.00 | 0.00 | 0.00 | 53 | 1014.9 |
| 20260906120332 | 92 | 314 | 6.0 | 12.0 | 0.00 | 0.00 | 0.00 | 53 | 1014.9 |
| 20260906115332 | 91 | 296 | 4.0 | 12.0 | 0.00 | 0.00 | 0.00 | 55 | 1014.8 |
| 20260906114333 | 91 | 335 | 5.0 | 9.0 | 0.00 | 0.00 | 0.00 | 55 | 1015.0 |
| 20260906113332 | 90 | 326 | 6.0 | 13.0 | 0.00 | 0.00 | 0.00 | 56 | 1014.9 |
| 20260906112332 | 89 | 297 | 6.0 | 13.0 | 0.00 | 0.00 | 0.00 | 57 | 1015.1 |
| 20260906111332 | 89 | 285 | 6.0 | 13.0 | 0.00 | 0.00 | 0.00 | 57 | 1015.1 |
| 20260906110332 | 88 | 291 | 4.0 | 14.0 | 0.00 | 0.00 | 0.00 | 59 | 1015.2 |
| 20260906105332 | 88 | 301 | 6.0 | 13.0 | 0.00 | 0.00 | 0.00 | 58 | 1015.3 |
| 20260906104332 | 88 | 296 | 6.0 | 14.0 | 0.00 | 0.00 | 0.00 | 59 | 1015.2 |
| 20260906103332 | 88 | 245 | 3.0 | 12.0 | 0.00 | 0.00 | 0.00 | 59 | 1015.1 |
| 20260906102332 | 88 | 301 | 7.0 | 14.0 | 0.00 | 0.00 | 0.00 | 58 | 1015.1 |
| 20260906101332 | 88 | 299 | 4.0 | 10.0 | 0.00 | 0.00 | 0.00 | 58 | 1015.1 |
| 20260906100332 | 88 | 315 | 6.0 | 14.0 | 0.00 | 0.00 | 0.00 | 57 | 1015.2 |
| 20260906095333 | 87 | 238 | 5.0 | 12.0 | 0.00 | 0.00 | 0.00 | 57 | 1015.1 |
| 20260906094332 | 87 | 312 | 4.0 | 13.0 | 0.00 | 0.00 | 0.00 | 57 | 1015.1 |
| 20260906093332 | 87 | 293 | 3.0 | 13.0 | 0.00 | 0.00 | 0.00 | 58 | 1015.2 |
| 20260906092332 | 87 | 277 | 5.0 | 14.0 | 0.00 | 0.00 | 0.00 | 58 | 1015.1 |
| 20260906091333 | 87 | 292 | 5.0 | 9.0 | 0.00 | 0.00 | 0.00 | 58 | 1015.0 |
| 20260906090332 | 87 | 297 | 3.0 | 12.0 | 0.00 | 0.00 | 0.00 | 57 | 1015.2 |
| 20260906085332 | 86 | 215 | 3.0 | 9.0 | 0.00 | 0.00 | 0.00 | 58 | 1015.1 |
| 20260906084332 | 86 | 214 | 3.0 | 8.0 | 0.00 | 0.00 | 0.00 | 58 | 1015.1 |
| 20260906083333 | 85 | 213 | 3.0 | 9.0 | 0.00 | 0.00 | 0.00 | 59 | 1015.3 |
| 20260906080332 | 84 | 251 | 3.0 | 9.0 | 0.00 | 0.00 | 0.00 | 61 | 1015.6 |
| 20260906075333 | 84 | 282 | 4.0 | 7.0 | 0.00 | 0.00 | 0.00 | 62 | 1015.8 |
| 20260906074332 | 84 | 198 | 4.0 | 9.0 | 0.00 | 0.00 | 0.00 | 63 | 1015.9 |
| 20260906072333 | 84 | 231 | 2.0 | 7.0 | 0.00 | 0.00 | 0.00 | 66 | 1016.0 |
| 20260906071332 | 83 | 256 | 4.0 | 12.0 | 0.00 | 0.00 | 0.00 | 66 | 1016.0 |
| 20260906065332 | 82 | 241 | 3.0 | 6.0 | 0.00 | 0.00 | 0.00 | 67 | 1015.9 |
| 20260906063332 | 82 | 167 | 1.0 | 3.0 | 0.00 | 0.00 | 0.00 | 71 | 1015.7 |
| 20260906062333 | 81 | 204 | 3.0 | 8.0 | 0.00 | 0.00 | 0.00 | 73 | 1015.7 |
| 20260906061332 | 80 | 190 | 2.0 | 10.0 | 0.00 | 0.00 | 0.00 | 74 | 1015.6 |
| 20260906054332 | 79 | 203 | 3.0 | 9.0 | 0.00 | 0.00 | 0.00 | 77 | 1015.5 |
| 20260906053332 | 78 | 138 | 1.0 | 8.0 | 0.00 | 0.00 | 0.00 | 77 | 1015.5 |
| 20260906052333 | 78 | 138 | 3.0 | 8.0 | 0.00 | 0.00 | 0.00 | 78 | 1015.5 |
| 20260906051332 | 77 | 148 | 3.0 | 8.0 | 0.00 | 0.00 | 0.00 | 78 | 1015.5 |
| 20260906045332 | 76 | 154 | 2.0 | 8.0 | 0.00 | 0.00 | 0.00 | 79 | 1015.3 |
| 20260906043332 | 75 | 163 | 1.0 | 5.0 | 0.00 | 0.00 | 0.00 | 79 | 1015.5 |
| 20260906042332 | 75 | 140 | 0.0 | 6.0 | 0.00 | 0.00 | 0.00 | 79 | 1015.6 |
| 20260906041332 | 75 | 206 | 0.0 | 3.0 | 0.00 | 0.00 | 0.00 | 79 | 1015.6 |
| 20260906040332 | 75 | 316 | 0.0 | 1.0 | 0.00 | 0.00 | 0.00 | 79 | 1015.4 |
| 20260906035332 | 75 | 316 | 0.0 | 1.0 | 0.00 | 0.00 | 0.00 | 79 | 1015.2 |
| 20260906034332 | 75 | 316 | 0.0 | 1.0 | 0.00 | 0.00 | 0.00 | 79 | 1015.1 |
| 20260906033332 | 75 | 316 | 0.0 | 1.0 | 0.00 | 0.00 | 0.00 | 79 | 1015.1 |
| 20260906032332 | 75 | 316 | 0.0 | 1.0 | 0.00 | 0.00 | 0.00 | 79 | 1015.1 |
| 20260906031332 | 75 | 316 | 0.0 | 1.0 | 0.00 | 0.00 | 0.00 | 79 | 1015.0 |
| 20260906030332 | 75 | 316 | 0.0 | 1.0 | 0.00 | 0.00 | 0.00 | 79 | 1015.0 |
| 20260906024332 | 75 | 316 | 0.0 | 2.0 | 0.00 | 0.00 | 0.00 | 78 | 1014.9 |
| 20260906023332 | 75 | 316 | 0.0 | 1.0 | 0.00 | 0.00 | 0.00 | 78 | 1014.9 |
| 20260906022332 | 75 | 316 | 0.0 | 1.0 | 0.00 | 0.00 | 0.00 | 78 | 1015.0 |
| 20260906015332 | 75 | 316 | 0.0 | 1.0 | 0.00 | 0.00 | 0.00 | 77 | 1014.8 |
| 20260906014332 | 75 | 316 | 0.0 | 1.0 | 0.00 | 0.00 | 0.00 | 77 | 1014.7 |
| 20260906013332 | 75 | 316 | 0.0 | 1.0 | 0.00 | 0.00 | 0.00 | 77 | 1014.5 |
| 20260906012332 | 76 | 316 | 0.0 | 1.0 | 0.00 | 0.00 | 0.00 | 77 | 1014.6 |
| 20260906011332 | 76 | 316 | 0.0 | 1.0 | 0.00 | 0.00 | 0.00 | 77 | 1014.5 |
| 20260906010332 | 76 | 316 | 0.0 | 1.0 | 0.00 | 0.00 | 0.00 | 77 | 1014.5 |
| 20260906004332 | 76 | 316 | 0.0 | 1.0 | 0.00 | 0.00 | 0.00 | 77 | 1014.6 |
| 20260906003332 | 76 | 316 | 0.0 | 1.0 | 0.00 | 0.00 | 0.00 | 76 | 1014.4 |
| 20260906002331 | 76 | 316 | 0.0 | 0.0 | 0.00 | 0.00 | 0.00 | 76 | 1014.4 |
| 20260906001332 | 76 | 316 | 0.0 | 0.0 | 0.00 | 0.00 | 0.00 | 76 | 1014.5 |
| 20260906000333 | 76 | 316 | 0.0 | 0.0 | 0.00 | 0.00 | 0.00 | 76 | 1014.5 |
| 20260905235332 | 76 | 316 | 0.0 | 1.0 | 0.00 | 0.00 | 0.00 | 75 | 1014.5 |
| 20260905234332 | 77 | 316 | 0.0 | 0.0 | 0.00 | 0.00 | 0.00 | 75 | 1014.5 |
| 20260905232332 | 77 | 316 | 0.0 | 1.0 | 0.00 | 0.00 | 0.00 | 75 | 1014.6 |
| 20260905231332 | 77 | 316 | 0.0 | 0.0 | 0.00 | 0.00 | 0.00 | 74 | 1014.7 |
| 20260905230332 | 77 | 316 | 0.0 | 1.0 | 0.00 | 0.00 | 0.00 | 74 | 1014.6 |
| 20260905225332 | 78 | 316 | 0.0 | 1.0 | 0.00 | 0.00 | 0.00 | 74 | 1014.7 |
| 20260905224332 | 78 | 316 | 0.0 | 1.0 | 0.00 | 0.00 | 0.00 | 74 | 1014.7 |
| 20260905223332 | 78 | 316 | 0.0 | 1.0 | 0.00 | 0.00 | 0.00 | 73 | 1014.8 |
| 20260905221332 | 79 | 316 | 0.0 | 1.0 | 0.00 | 0.00 | 0.00 | 73 | 1014.9 |
| 20260905220332 | 79 | 316 | 0.0 | 1.0 | 0.00 | 0.00 | 0.00 | 73 | 1014.9 |
| 20260905213331 | 79 | 316 | 0.0 | 0.0 | 0.00 | 0.00 | 0.00 | 71 | 1015.2 |
| 20260905212331 | 79 | 316 | 0.0 | 1.0 | 0.00 | 0.00 | 0.00 | 71 | 1015.2 |
| 20260905211331 | 80 | 316 | 0.0 | 0.0 | 0.00 | 0.00 | 0.00 | 71 | 1015.2 |
| 20260905210331 | 80 | 316 | 0.0 | 0.0 | 0.00 | 0.00 | 0.00 | 71 | 1015.3 |
| 20260905203332 | 80 | 316 | 0.0 | 0.0 | 0.00 | 0.00 | 0.00 | 70 | 1015.4 |
| 20260905202332 | 80 | 316 | 0.0 | 0.0 | 0.00 | 0.00 | 0.00 | 70 | 1015.3 |
| 20260905201331 | 80 | 316 | 0.0 | 1.0 | 0.00 | 0.00 | 0.00 | 70 | 1015.3 |
| 20260905200331 | 81 | 316 | 0.0 | 1.0 | 0.00 | 0.00 | 0.00 | 70 | 1015.4 |
| 20260905195331 | 81 | 316 | 0.0 | 1.0 | 0.00 | 0.00 | 0.00 | 69 | 1015.3 |
| 20260905194332 | 81 | 316 | 0.0 | 0.0 | 0.00 | 0.00 | 0.00 | 69 | 1015.4 |
| 20260905193331 | 81 | 316 | 0.0 | 0.0 | 0.00 | 0.00 | 0.00 | 68 | 1015.4 |
| 20260905192331 | 81 | 316 | 0.0 | 0.0 | 0.00 | 0.00 | 0.00 | 69 | 1015.5 |
| 20260905191331 | 81 | 316 | 0.0 | 0.0 | 0.00 | 0.00 | 0.00 | 68 | 1015.5 |
| 20260905190332 | 82 | 316 | 0.0 | 0.0 | 0.00 | 0.00 | 0.00 | 68 | 1015.5 |
| 20260905185332 | 82 | 316 | 0.0 | 0.0 | 0.00 | 0.00 | 0.00 | 67 | 1015.5 |
| 20260905184332 | 82 | 316 | 0.0 | 0.0 | 0.00 | 0.00 | 0.00 | 67 | 1015.4 |
| 20260905183332 | 82 | 316 | 0.0 | 0.0 | 0.00 | 0.00 | 0.00 | 66 | 1015.4 |
| 20260905182331 | 82 | 316 | 0.0 | 0.0 | 0.00 | 0.00 | 0.00 | 67 | 1015.6 |
| 20260905181331 | 82 | 316 | 0.0 | 1.0 | 0.00 | 0.00 | 0.00 | 66 | 1015.5 |
| 20260905180331 | 82 | 316 | 0.0 | 0.0 | 0.00 | 0.00 | 0.00 | 66 | 1015.6 |
| 20260905175331 | 83 | 316 | 0.0 | 0.0 | 0.00 | 0.00 | 0.00 | 66 | 1015.4 |
| 20260905174332 | 83 | 316 | 0.0 | 1.0 | 0.00 | 0.00 | 0.00 | 66 | 1015.4 |
| 20260905173332 | 83 | 316 | 0.0 | 1.0 | 0.00 | 0.00 | 0.00 | 66 | 1015.4 |
| 20260905172332 | 83 | 316 | 0.0 | 2.0 | 0.00 | 0.00 | 0.00 | 66 | 1015.4 |
| 20260905171332 | 83 | 317 | 0.0 | 3.0 | 0.00 | 0.00 | 0.00 | 66 | 1015.3 |
| 20260905170332 | 83 | 316 | 0.0 | 3.0 | 0.00 | 0.00 | 0.00 | 65 | 1015.2 |
| 20260905164331 | 84 | 315 | 0.0 | 3.0 | 0.00 | 0.00 | 0.00 | 64 | 1014.9 |
| 20260905163332 | 84 | 315 | 0.0 | 3.0 | 0.00 | 0.00 | 0.00 | 64 | 1014.8 |
| 20260905162332 | 84 | 317 | 0.0 | 3.0 | 0.00 | 0.00 | 0.00 | 64 | 1014.8 |
| 20260905160331 | 85 | 319 | 2.0 | 3.0 | 0.00 | 0.00 | 0.00 | 63 | 1014.7 |
| 20260905155331 | 85 | 318 | 1.0 | 5.0 | 0.00 | 0.00 | 0.00 | 62 | 1014.7 |
| 20260905154332 | 86 | 314 | 1.0 | 5.0 | 0.00 | 0.00 | 0.00 | 62 | 1014.7 |
| 20260905153331 | 86 | 324 | 1.0 | 5.0 | 0.00 | 0.00 | 0.00 | 62 | 1014.7 |
| 20260905152331 | 87 | 321 | 1.0 | 6.0 | 0.00 | 0.00 | 0.00 | 61 | 1014.7 |
| 20260905151331 | 87 | 324 | 2.0 | 7.0 | 0.00 | 0.00 | 0.00 | 61 | 1014.7 |
| 20260905150331 | 87 | 306 | 3.0 | 10.0 | 0.00 | 0.00 | 0.00 | 61 | 1014.7 |
| 20260905145332 | 87 | 308 | 4.0 | 9.0 | 0.00 | 0.00 | 0.00 | 60 | 1014.6 |
| 20260905144331 | 88 | 321 | 4.0 | 9.0 | 0.00 | 0.00 | 0.00 | 60 | 1014.5 |
| 20260905143331 | 88 | 320 | 5.0 | 10.0 | 0.00 | 0.00 | 0.00 | 59 | 1014.4 |
| 20260905142331 | 89 | 319 | 5.0 | 12.0 | 0.00 | 0.00 | 0.00 | 58 | 1014.3 |
| 20260905141332 | 89 | 330 | 5.0 | 9.0 | 0.00 | 0.00 | 0.00 | 58 | 1014.2 |
| 20260905140332 | 90 | 315 | 5.0 | 10.0 | 0.00 | 0.00 | 0.00 | 57 | 1014.3 |
| 20260905135331 | 90 | 317 | 5.0 | 12.0 | 0.00 | 0.00 | 0.00 | 57 | 1014.3 |
| 20260905134332 | 90 | 318 | 5.0 | 10.0 | 0.00 | 0.00 | 0.00 | 56 | 1014.4 |
| 20260905133331 | 91 | 297 | 3.0 | 10.0 | 0.00 | 0.00 | 0.00 | 56 | 1014.2 |
| 20260905132332 | 91 | 330 | 3.0 | 12.0 | 0.00 | 0.00 | 0.00 | 55 | 1014.1 |
| 20260905131331 | 91 | 300 | 3.0 | 12.0 | 0.00 | 0.00 | 0.00 | 55 | 1014.3 |
| 20260905130331 | 92 | 320 | 4.0 | 12.0 | 0.00 | 0.00 | 0.00 | 54 | 1014.3 |
| 20260905125332 | 92 | 314 | 6.0 | 13.0 | 0.00 | 0.00 | 0.00 | 55 | 1014.4 |